This is the latest recevied weather packets stored in our database for station/object NA9VY-8. If no packets are shown the sender has not sent any weather packets the latest 10 day(s).
| Time | Temp. | Humidity | Pressure | Rain* | Wind** | Luminosity | Snow |
|---|---|---|---|---|---|---|---|
| 1777507759 | 15° C | 63% | 1016.4 hPa | 0 mm | - | 10 W/m² | - |
| 1777507455 | 15° C | 63% | 1016.5 hPa | 0 mm | - | 15 W/m² | - |
| 1777507153 | 15° C | 61% | 1016.5 hPa | 0 mm | - | 15 W/m² | - |
| 1777506851 | 15.56° C | 61% | 1016.4 hPa | 0 mm | - | 16 W/m² | - |
| 1777506547 | 15.56° C | 59% | 1016.3 hPa | 0 mm | - | 23 W/m² | - |
| 1777506242 | 15.56° C | 59% | 1016.3 hPa | 0 mm | - | 33 W/m² | - |
| 1777505940 | 15.56° C | 61% | 1016.2 hPa | 0 mm | - | 27 W/m² | - |
| 1777505635 | 15.56° C | 64% | 1016.1 hPa | 0 mm | - | 28 W/m² | - |
| 1777505332 | 15.56° C | 61% | 1016.3 hPa | 0 mm | - | 31 W/m² | - |
| 1777505029 | 16.11° C | 62% | 1016.2 hPa | 0 mm | - | 42 W/m² | - |
| 1777504726 | 16.11° C | 62% | 1016.2 hPa | 0 mm | - | 40 W/m² | - |
| 1777504424 | 16.11° C | 60% | 1016.2 hPa | 0 mm | - | 35 W/m² | - |
| 1777504124 | 16.11° C | 60% | 1016.2 hPa | 0 mm | - | 56 W/m² | - |
| 1777503820 | 16.11° C | 61% | 1016.3 hPa | 0 mm | - | 66 W/m² | - |
| 1777503517 | 16.11° C | 60% | 1016.2 hPa | 0 mm | - | 65 W/m² | - |
| 1777503213 | 16.11° C | 60% | 1016.1 hPa | 0 mm | - | 60 W/m² | - |
| 1777502910 | 16.11° C | 57% | 1016.2 hPa | 0 mm | - | 55 W/m² | - |
| 1777502608 | 16.67° C | 58% | 1016.2 hPa | 0 mm | - | 65 W/m² | - |
| 1777502304 | 16.67° C | 60% | 1015.9 hPa | 0 mm | - | 65 W/m² | - |
| 1777502001 | 16.67° C | 60% | 1016 hPa | 0 mm | - | 59 W/m² | - |
| 1777501698 | 16.67° C | 61% | 1016.1 hPa | 0 mm | - | 62 W/m² | - |
| 1777501395 | 16.67° C | 62% | 1016.1 hPa | 0 mm | - | 72 W/m² | - |
| 1777501093 | 16.67° C | 61% | 1015.8 hPa | 0 mm | - | 66 W/m² | - |
| 1777500790 | 16.67° C | 60% | 1015.7 hPa | 0 mm | - | 72 W/m² | - |
| 1777500488 | 17.22° C | 61% | 1015.8 hPa | 0 mm | - | 76 W/m² | - |
* Rain latest hour (hover to see other rain measurements)
** Current wind speed in m/s (hover to see current wind gust speed)